Wind_Speed
54 49 45 40 38 40 39 34 29 30 28 27 26 25 25 22 21 23 23 20 18 19 20 22 25 28 31 32 32 32 31 29 28 28 28 29 31 33 35 37 38 39 41 42
49 45 42 43 42 40 36 31 29 31 29 27 25 24 24 22 21 21 21 21 22 23 25 26 28 30 30 30 30 29 28 28 28 28 30 32 33 35 38 40 41 42 43 44
42 43 45 42 39 39 37 32 30 31 31 27 25 24 24 23 21 21 22 24 26 27 28 29 28 28 28 28 28 27 27 28 29 30 31 32 34 36 38 40 41 42 44 45
43 43 41 39 38 38 35 30 29 31 30 27 25 26 25 25 25 25 26 28 29 29 28 26 26 26 26 26 26 27 28 29 30 31 33 34 35 37 39 41 41 41 42 43
43 41 39 37 35 34 29 28 30 31 27 25 25 26 26 26 26 26 27 27 26 25 24 24 24 25 26 27 28 29 31 33 34 36 38 40 41 43 45 47 48 49 49 49
40 38 35 32 29 27 25 26 27 26 25 24 23 24 26 25 24 22 21 20 20 21 23 24 26 27 29 30 32 33 36 38 40 42 44 45 47 48 50 51 53 54 55 56
38 33 28 26 25 23 23 24 24 22 22 22 21 22 25 24 21 19 18 20 22 23 25 27 30 32 33 35 37 39 40 42 44 46 48 49 51 53 54 54 55 55 56 58
32 29 26 23 20 20 22 23 22 22 22 19 18 20 23 21 20 21 21 24 26 28 30 33 35 37 38 40 41 42 44 45 46 47 49 50 52 54 55 57 58 59 61 63
28 25 22 20 19 19 19 19 18 17 17 17 18 19 22 21 23 26 27 29 31 34 37 39 40 39 40 41 43 44 46 47 49 51 52 54 56 58 60 62 64 65 67 68
23 22 20 19 18 18 17 16 17 17 17 18 18 19 24 25 27 30 33 33 34 36 38 40 40 40 41 44 46 48 50 52 54 55 57 58 59 61 63 64 66 66 66 66
21 20 19 18 18 18 17 16 17 17 18 19 20 21 25 28 29 31 33 33 34 35 38 41 43 43 45 48 50 52 53 55 56 57 58 59 60 61 61 62 63 63 63 64
20 19 18 18 19 19 18 18 18 19 20 22 24 24 25 27 28 31 34 35 35 37 41 45 46 48 50 52 52 53 54 55 56 57 58 60 61 62 63 64 65 66 67 69
20 20 20 20 20 19 18 18 19 21 23 24 24 21 23 25 28 32 36 37 37 40 43 47 49 51 52 53 55 56 57 58 59 60 62 63 65 66 67 69 70 71 72 72
20 20 21 20 18 20 20 20 21 22 21 22 21 21 24 27 31 35 38 39 40 41 43 46 50 53 56 59 61 63 64 66 67 69 70 70 71 71 71 72 72 72 73 73
17 18 19 20 20 21 19 18 19 21 23 25 26 27 28 31 33 35 38 40 43 46 48 51 55 58 61 64 66 68 70 72 73 74 75 76 76 76 75 74 74 74 74 75
11 13 15 16 18 18 17 19 23 26 28 31 32 30 31 33 34 37 41 46 49 52 54 57 60 64 66 68 70 72 73 74 75 76 77 77 76 76 75 75 75 75 76 76
14 16 18 19 21 22 22 23 25 27 28 29 31 32 36 39 42 45 48 52 55 58 61 64 67 70 72 74 75 76 77 78 78 78 78 77 77 77 77 75 74 74 75 76
20 22 23 23 24 25 23 22 22 24 26 30 33 37 42 45 49 52 56 58 61 65 68 71 74 77 79 80 80 80 80 80 79 78 77 76 77 77 76 76 77 78 78 78
20 21 22 22 23 23 20 23 27 30 32 36 39 43 47 51 55 59 62 65 68 72 75 78 80 82 83 83 82 80 79 79 77 76 76 76 76 76 77 78 79 78 78 77
16 18 20 21 24 24 27 29 32 36 40 44 48 52 55 58 62 64 67 70 73 77 80 82 84 84 83 81 79 77 76 75 75 75 75 75 74 74 73 73 72 72 72 72
17 19 21 25 28 30 34 37 40 44 49 53 56 58 62 64 66 68 70 74 77 81 83 83 82 81 79 77 74 73 73 73 73 74 73 73 72 72 71 71 70 71 72 74
21 24 27 30 33 36 39 42 46 50 54 56 59 61 64 67 70 73 76 79 81 82 80 79 77 75 73 72 70 70 70 70 70 69 69 68 68 68 69 71 72 74 77 80
26 30 34 37 38 41 46 50 54 57 58 59 62 64 68 71 74 77 79 81 80 77 74 72 70 68 67 67 67 66 66 65 64 63 63 63 65 67 70 73 76 79 82 84
32 38 42 45 46 49 53 57 59 60 61 63 66 69 72 74 77 79 80 77 74 70 68 65 63 62 63 63 62 61 61 60 61 62 64 67 70 72 75 78 81 83 84 84
42 46 49 51 54 57 58 61 63 63 65 67 70 72 75 77 79 79 76 71 68 65 63 61 59 59 59 58 58 60 61 63 66 68 71 74 77 79 80 82 83 84 82 80
48 51 54 56 58 61 61 63 65 67 69 71 73 75 78 80 80 77 72 67 63 60 58 57 57 57 58 59 61 64 67 70 73 75 77 79 81 83 84 84 83 80 75 69
Wind_Direction
208 212 214 217 221 222 221 219 220 229 232 234 232 231 239 246 244 240 238 237 243 251 260 269 277 282 285 286 287 287 287 286 286 286 283 282 283 283 283 284 284 283 282 281
205 208 209 214 220 221 223 223 225 232 237 236 231 232 239 244 241 239 240 245 251 259 267 273 278 281 283 285 287 287 287 287 287 288 288 288 287 287 286 285 285 284 283 283
200 202 207 212 218 222 222 222 227 235 239 237 232 232 236 242 243 246 251 256 262 268 274 278 280 282 284 286 287 288 289 290 291 292 293 292 291 290 289 288 289 289 288 288
196 201 206 212 216 221 221 223 232 239 240 236 234 235 239 244 251 257 262 266 270 274 277 279 280 281 282 284 286 288 290 291 292 292 292 292 293 293 293 292 292 291 290 290
195 196 202 209 214 219 221 224 232 238 240 240 239 242 246 253 260 264 265 267 269 272 274 276 278 279 281 283 286 288 290 291 291 292 292 292 292 292 291 291 290 290 289 289
188 193 200 205 209 212 215 223 230 235 238 239 241 248 253 257 264 264 264 265 266 268 271 273 276 278 280 283 286 288 288 289 290 290 291 291 291 290 290 290 290 290 290 289
183 188 193 198 202 205 211 216 218 222 229 235 240 249 258 258 260 261 266 270 270 271 274 277 280 282 284 286 288 288 288 289 290 290 291 290 290 290 289 288 288 287 287 286
179 183 186 188 190 195 203 208 215 220 226 232 238 250 258 263 268 272 275 276 277 279 282 285 287 289 291 293 293 293 293 293 292 292 291 290 289 288 287 286 285 284 283 282
178 181 184 184 187 196 203 205 212 225 234 238 241 252 262 268 274 278 280 283 286 288 290 292 293 294 295 295 294 294 293 292 291 290 289 288 287 286 284 283 283 282 282 282
179 181 185 187 193 202 207 210 217 227 236 240 244 256 266 270 276 282 285 288 291 294 295 295 294 295 295 294 294 294 294 293 292 291 290 289 288 286 285 284 284 284 284 285
184 188 190 195 202 209 216 222 229 240 251 261 266 275 281 286 290 293 295 296 297 299 297 296 296 296 295 295 295 295 294 294 293 292 292 291 289 288 287 287 286 286 287 287
194 200 204 209 216 222 230 239 248 259 268 274 283 291 293 295 297 297 298 298 300 299 297 297 297 297 296 296 295 294 293 292 292 291 291 290 289 288 287 286 286 286 286 286
209 215 220 225 232 240 249 258 267 273 278 283 289 292 291 292 292 292 295 297 298 297 297 298 298 298 298 298 297 296 294 294 293 292 291 290 289 288 287 287 286 286 286 286
222 231 237 245 254 259 264 271 276 279 285 286 288 285 286 287 288 291 294 297 298 298 299 300 300 300 300 300 299 298 296 295 294 293 292 291 290 288 287 286 286 285 284 284
223 235 246 252 255 261 267 273 277 280 283 285 286 288 291 290 294 298 299 299 299 299 299 300 300 299 299 299 298 298 297 296 295 294 293 292 291 291 290 289 287 285 284 282
225 237 247 255 262 266 268 272 276 282 287 290 292 295 292 292 295 297 298 297 297 297 298 299 299 299 298 298 297 296 295 295 294 293 293 292 291 290 289 288 286 285 284 284
247 249 252 258 268 274 278 284 288 292 294 296 297 295 292 293 295 296 296 296 298 299 299 299 299 298 298 298 297 296 296 296 295 294 293 291 291 290 289 288 286 285 284 283
260 261 263 266 267 275 283 289 290 291 295 296 295 295 296 297 298 298 299 301 301 301 300 299 299 299 299 299 298 297 297 296 294 293 291 290 290 289 288 287 287 285 284 284
269 271 273 274 275 278 287 288 290 293 296 296 296 297 298 300 300 301 301 300 299 299 299 299 299 299 299 299 299 298 296 295 293 291 290 290 289 288 288 288 288 286 285 285
275 278 282 283 284 291 293 289 291 294 296 295 297 299 300 300 300 299 298 297 297 297 297 298 299 299 299 299 298 296 294 293 292 291 291 291 291 291 291 290 289 288 286 286
272 276 280 281 283 290 291 293 296 299 299 298 299 299 300 299 299 298 298 297 297 297 298 299 299 299 299 298 296 294 293 293 293 293 294 294 294 293 292 291 290 289 288 288
273 278 278 279 285 293 294 296 296 297 297 298 298 298 299 299 299 300 300 300 300 300 300 300 299 298 297 297 296 295 295 295 296 296 296 296 296 295 295 294 294 294 293 292
284 284 283 285 291 296 297 297 298 300 300 300 299 299 299 300 301 302 302 303 303 303 301 299 298 297 297 297 297 298 298 299 300 300 299 299 299 299 299 299 299 298 297 296
283 282 285 289 296 298 299 300 300 300 300 299 299 300 301 303 304 305 306 306 304 302 300 300 299 299 299 299 300 301 302 302 302 302 302 302 302 302 301 301 301 301 300 299
284 284 288 292 295 295 297 298 298 298 299 300 302 303 305 306 307 307 307 306 303 302 302 301 300 300 301 302 303 303 304 304 304 303 303 303 304 304 303 303 304 304 304 303
283 286 289 291 293 294 296 297 298 300 302 303 305 306 306 307 307 307 306 305 303 302 300 299 300 301 303 304 305 305 305 306 306 306 306 306 306 306 306 307 307 307 306 304
Height
5750 5761 5771 5779 5784 5787 5792 5796 5799 5802 5806 5810 5811 5812 5813 5816 5817 5818 5819 5822 5824 5825 5825 5826 5825 5825 5824 5823 5821 5820 5818 5817 5817 5816 5814 5813 5812 5811 5810 5808 5806 5804 5801 5799
5750 5760 5769 5773 5778 5785 5792 5795 5796 5799 5803 5806 5807 5808 5811 5812 5814 5816 5818 5820 5820 5821 5822 5822 5821 5820 5819 5817 5816 5814 5813 5812 5811 5810 5808 5807 5806 5804 5802 5800 5798 5795 5792 5790
5749 5759 5764 5771 5778 5784 5788 5790 5792 5797 5800 5802 5804 5806 5808 5810 5812 5814 5815 5816 5817 5817 5818 5817 5816 5815 5814 5813 5811 5809 5808 5806 5805 5804 5803 5801 5799 5797 5794 5792 5789 5786 5783 5781
5746 5754 5764 5771 5776 5781 5785 5787 5792 5794 5796 5799 5801 5803 5806 5807 5809 5811 5812 5812 5813 5813 5813 5812 5811 5810 5809 5808 5807 5805 5803 5801 5800 5798 5796 5794 5792 5790 5787 5784 5781 5778 5774 5772
5746 5755 5762 5768 5774 5778 5782 5785 5789 5791 5793 5796 5797 5799 5803 5803 5805 5807 5807 5807 5807 5808 5807 5806 5806 5805 5804 5803 5801 5800 5798 5796 5794 5791 5789 5787 5784 5781 5778 5775 5772 5769 5766 5763
5747 5754 5761 5767 5773 5776 5779 5782 5785 5786 5788 5792 5794 5796 5798 5799 5801 5802 5802 5802 5802 5802 5802 5801 5800 5799 5798 5797 5796 5794 5792 5789 5787 5784 5781 5778 5775 5771 5768 5765 5761 5758 5754 5751
5746 5754 5761 5766 5770 5772 5776 5780 5782 5784 5785 5788 5791 5792 5793 5795 5796 5797 5798 5798 5798 5797 5796 5795 5794 5793 5792 5791 5789 5787 5784 5781 5778 5775 5771 5768 5764 5761 5757 5753 5749 5745 5741 5736
5747 5754 5760 5764 5767 5771 5774 5777 5780 5781 5783 5786 5788 5789 5790 5791 5791 5792 5793 5793 5792 5792 5791 5790 5788 5787 5785 5783 5781 5778 5775 5772 5768 5765 5761 5757 5752 5748 5743 5739 5735 5730 5725 5720
5747 5754 5759 5762 5766 5770 5773 5775 5778 5781 5783 5785 5786 5787 5787 5788 5788 5787 5787 5788 5787 5786 5785 5783 5781 5780 5777 5775 5772 5768 5765 5761 5758 5754 5749 5745 5740 5735 5730 5725 5720 5715 5710 5706
5749 5753 5757 5761 5764 5769 5772 5773 5776 5778 5780 5782 5784 5785 5784 5784 5784 5782 5782 5782 5782 5780 5778 5775 5773 5771 5769 5765 5761 5757 5753 5749 5745 5740 5736 5731 5726 5721 5716 5710 5705 5700 5695 5691
5748 5752 5756 5759 5763 5766 5770 5772 5773 5775 5777 5778 5780 5783 5780 5778 5778 5776 5775 5774 5774 5772 5769 5766 5764 5761 5758 5754 5750 5745 5740 5735 5730 5725 5720 5716 5711 5706 5701 5696 5691 5686 5681 5676
5746 5751 5754 5757 5760 5763 5766 5768 5770 5772 5773 5774 5775 5779 5774 5772 5771 5768 5766 5766 5765 5763 5759 5756 5753 5749 5745 5741 5737 5732 5726 5722 5717 5712 5707 5702 5697 5692 5687 5681 5676 5671 5665 5660
5745 5748 5751 5754 5759 5761 5763 5765 5766 5767 5768 5768 5769 5773 5768 5766 5763 5761 5758 5756 5755 5753 5749 5744 5741 5737 5732 5728 5724 5719 5713 5709 5704 5699 5693 5688 5682 5676 5671 5665 5659 5653 5647 5642
5743 5746 5749 5752 5755 5756 5758 5760 5761 5761 5762 5762 5763 5763 5762 5759 5756 5753 5750 5747 5744 5741 5738 5734 5729 5724 5719 5715 5710 5705 5700 5695 5689 5683 5677 5672 5666 5660 5654 5648 5642 5635 5628 5622
5740 5742 5744 5747 5749 5751 5753 5755 5754 5755 5755 5755 5755 5754 5754 5750 5748 5745 5741 5737 5733 5730 5726 5722 5718 5712 5707 5701 5696 5689 5683 5677 5671 5665 5659 5653 5647 5641 5634 5628 5622 5615 5609 5602
5737 5739 5740 5742 5743 5745 5747 5748 5747 5747 5747 5746 5745 5746 5743 5740 5739 5736 5732 5727 5723 5719 5715 5710 5705 5698 5692 5686 5679 5672 5665 5658 5651 5645 5638 5632 5626 5619 5613 5606 5600 5594 5588 5582
5734 5735 5737 5739 5738 5739 5741 5742 5741 5741 5740 5739 5737 5736 5733 5731 5728 5725 5721 5716 5711 5706 5701 5696 5689 5682 5675 5668 5661 5653 5646 5639 5631 5624 5617 5610 5603 5596 5590 5583 5577 5571 5566 5561
5730 5731 5733 5734 5735 5735 5739 5737 5736 5734 5734 5732 5729 5725 5722 5719 5715 5711 5706 5702 5696 5689 5683 5677 5670 5663 5655 5648 5640 5632 5624 5617 5609 5602 5595 5587 5580 5574 5568 5561 5555 5549 5543 5537
5724 5725 5726 5727 5727 5729 5732 5730 5727 5726 5725 5722 5718 5714 5711 5706 5702 5697 5692 5685 5678 5671 5664 5657 5649 5641 5633 5625 5618 5610 5602 5594 5586 5579 5572 5565 5559 5552 5546 5540 5533 5526 5520 5515
5717 5718 5719 5719 5719 5721 5720 5719 5717 5716 5714 5710 5707 5703 5698 5694 5689 5684 5677 5669 5662 5653 5646 5637 5629 5620 5612 5604 5596 5588 5580 5572 5565 5558 5552 5544 5537 5530 5524 5518 5511 5505 5498 5493
5712 5713 5713 5712 5711 5712 5711 5708 5706 5705 5703 5698 5694 5689 5684 5678 5673 5667 5660 5653 5644 5635 5627 5618 5608 5599 5590 5582 5575 5567 5559 5552 5546 5539 5532 5524 5517 5510 5504 5497 5491 5484 5478 5472
5706 5707 5706 5704 5704 5704 5700 5698 5695 5693 5689 5686 5681 5674 5668 5660 5654 5648 5640 5632 5624 5615 5606 5596 5587 5577 5568 5560 5554 5547 5540 5534 5527 5520 5513 5506 5499 5492 5484 5478 5471 5463 5455 5448
5700 5698 5696 5696 5697 5693 5689 5684 5682 5680 5676 5671 5664 5658 5651 5643 5635 5627 5619 5609 5600 5590 5581 5573 5565 5557 5548 5541 5534 5528 5522 5515 5509 5502 5495 5488 5482 5474 5465 5457 5449 5440 5431 5421
5692 5688 5687 5686 5686 5681 5676 5671 5669 5666 5660 5654 5648 5641 5633 5624 5615 5605 5595 5585 5576 5567 5559 5552 5545 5539 5531 5524 5517 5510 5504 5498 5492 5485 5478 5471 5463 5455 5446 5436 5425 5415 5405 5394
5680 5677 5676 5674 5671 5667 5663 5658 5654 5650 5644 5638 5630 5622 5612 5603 5593 5583 5574 5565 5556 5548 5541 5535 5530 5523 5516 5510 5503 5495 5488 5482 5475 5467 5459 5451 5442 5432 5423 5413 5402 5389 5379 5366
5668 5666 5664 5662 5658 5654 5650 5644 5639 5632 5625 5618 5611 5603 5594 5584 5574 5565 5556 5548 5540 5533 5527 5521 5515 5508 5501 5495 5487 5479 5471 5463 5455 5446 5437 5428 5418 5408 5398 5387 5379 5368 5356 5347